sat.trackr.live / text

‹ back to catalog

STARLINK-32028

NORAD 60095 · 2024-117E

PAYLOAD ACTIVE UNKNOWN

§ Identity

Operator
Country
US
Launch date
2024-06-23
Launch site
AFETR
Launch vehicle
Mass (kg)
RCS (m²)

Purposes: comms

External: N2YO · Heavens-Above · Gunter

§ Orbital elements

Epoch: 2026-05-25T02:11:47.226048Z

Period
94.11 min
Inclination
53.1621°
Eccentricity
0.0001136
Mean motion
15.30194730 rev/d
Perigee alt
474.5 km
Apogee alt
476.0 km
Semi-major
6,853.4 km
B*
5.1969e-5
RAAN
42.2655°
Arg perigee
102.2370°
Mean anomaly
257.8758°
Rev number
10,858

§ Raw data

STARLINK-320281 60095U 24117E   26145.09151882  .00001180  00000+0  51969-4 0  99902 60095  53.1621  42.2655 0001136 102.2370 257.8758 15.30194730108587

JSON: /api/v1/satellites/60095 · /tle

For live sub-satellite position, see the globe view (requires WebGL).

§ Visibility from observer

Set your observer location to see the next 7 days of passes ≥ 10°. The values pass through the URL so the page stays shareable.

No JS? Fill the form by hand. The geolocation button needs JavaScript.